N2277X KGRR-KIND

Flight info

Callsign N2277X
Flight time 0h 54m
Altitude 8000
Route BRICKYARD RACIEN
Aircraft EVOT/L-I/S

Departure

Time 2026-05-07 02:56
Airport Gerald R. Ford International Airport (KGRR)

Arrival

Time 2026-05-07 03:50
Airport Indianapolis International Airport (KIND)
Time Latitude Longitude Altitude Speed Heading
2026-05-07 02:50 42.87896 -85.53017 795 ft 0 kts 97°
2026-05-07 02:50 42.87893 -85.52984 795 ft 0 kts 103°
2026-05-07 02:51 42.87892 -85.52982 795 ft 1 kts 103°
2026-05-07 02:51 42.87913 -85.52879 795 ft 19 kts 72°
2026-05-07 02:52 42.87941 -85.52602 792 ft 34 kts 87°
2026-05-07 02:52 42.87983 -85.52241 788 ft 38 kts 81°
2026-05-07 02:52 42.88020 -85.51893 788 ft 33 kts 81°
2026-05-07 02:52 42.88059 -85.51582 782 ft 31 kts 82°
2026-05-07 02:53 42.88092 -85.51286 782 ft 28 kts 81°
2026-05-07 02:53 42.88125 -85.51025 784 ft 18 kts 66°
2026-05-07 02:53 42.88205 -85.50978 785 ft 9 kts 51°
2026-05-07 02:53 42.88226 -85.50843 787 ft 21 kts 82°
2026-05-07 02:54 42.88240 -85.50634 790 ft 16 kts 94°
2026-05-07 02:54 42.88164 -85.50581 792 ft 0 kts 170°
2026-05-07 02:55 42.88126 -85.50575 792 ft 12 kts 179°
2026-05-07 02:55 42.88061 -85.50685 791 ft 21 kts 258°
2026-05-07 02:55 42.88019 -85.51075 784 ft 67 kts 261°
2026-05-07 02:55 42.87982 -85.51835 991 ft 78 kts 259°
2026-05-07 02:56 42.87945 -85.52724 1161 ft 103 kts 268°
2026-05-07 02:56 42.88238 -85.53628 1548 ft 108 kts 319°
2026-05-07 02:56 42.88596 -85.54401 2023 ft 98 kts 277°
2026-05-07 02:56 42.88443 -85.55418 2279 ft 114 kts 240°
2026-05-07 02:57 42.87741 -85.56020 2662 ft 124 kts 194°
2026-05-07 02:57 42.86854 -85.56182 3010 ft 129 kts 192°
2026-05-07 02:57 42.85784 -85.56384 3198 ft 165 kts 191°
2026-05-07 02:57 42.84515 -85.56641 3232 ft 197 kts 192°
2026-05-07 02:58 42.82883 -85.56969 3225 ft 220 kts 192°
2026-05-07 02:58 42.81166 -85.57317 3506 ft 223 kts 191°
2026-05-07 02:58 42.79413 -85.57661 3693 ft 228 kts 192°
2026-05-07 02:58 42.77591 -85.58019 3860 ft 232 kts 192°
2026-05-07 02:59 42.75780 -85.58370 4023 ft 235 kts 192°
2026-05-07 02:59 42.74042 -85.58708 4166 ft 237 kts 192°
2026-05-07 02:59 42.72303 -85.59049 4314 ft 238 kts 192°
2026-05-07 02:59 42.70590 -85.59386 4502 ft 237 kts 192°
2026-05-07 03:00 42.68952 -85.59700 4751 ft 234 kts 192°
2026-05-07 03:00 42.67243 -85.60032 5014 ft 232 kts 191°
2026-05-07 03:00 42.65502 -85.60360 5289 ft 230 kts 192°
2026-05-07 03:00 42.63723 -85.60686 5584 ft 229 kts 191°
2026-05-07 03:01 42.61955 -85.60993 5887 ft 229 kts 191°
2026-05-07 03:01 42.60208 -85.61292 6175 ft 228 kts 192°
2026-05-07 03:01 42.58577 -85.61574 6440 ft 227 kts 192°
2026-05-07 03:01 42.56960 -85.61852 6703 ft 227 kts 192°
2026-05-07 03:02 42.55358 -85.62126 6965 ft 226 kts 191°
2026-05-07 03:02 42.53758 -85.62395 7219 ft 226 kts 192°
2026-05-07 03:02 42.52146 -85.62707 7442 ft 226 kts 191°
2026-05-07 03:02 42.50538 -85.62963 7676 ft 226 kts 192°
2026-05-07 03:03 42.48917 -85.63210 7914 ft 225 kts 192°
2026-05-07 03:03 42.47287 -85.63450 8109 ft 226 kts 191°
2026-05-07 03:03 42.45626 -85.63700 8129 ft 232 kts 192°
2026-05-07 03:03 42.43916 -85.63959 8149 ft 237 kts 192°
2026-05-07 03:04 42.42190 -85.64242 8158 ft 240 kts 195°
2026-05-07 03:04 42.40505 -85.64594 8162 ft 242 kts 196°
2026-05-07 03:04 42.38777 -85.64865 8156 ft 246 kts 192°
2026-05-07 03:04 42.37014 -85.65141 8161 ft 247 kts 191°
2026-05-07 03:05 42.35264 -85.65401 8158 ft 248 kts 191°
2026-05-07 03:05 42.33508 -85.65659 8160 ft 249 kts 191°
2026-05-07 03:05 42.31691 -85.65932 8160 ft 249 kts 191°
2026-05-07 03:05 42.29857 -85.66215 8159 ft 250 kts 191°
2026-05-07 03:06 42.28082 -85.66485 8162 ft 250 kts 191°
2026-05-07 03:06 42.26304 -85.66755 8157 ft 250 kts 191°
2026-05-07 03:06 42.24476 -85.67030 8159 ft 250 kts 191°
2026-05-07 03:06 42.22551 -85.67313 8172 ft 250 kts 191°
2026-05-07 03:07 42.20721 -85.67808 8144 ft 245 kts 205°
2026-05-07 03:07 42.18906 -85.68660 8158 ft 242 kts 204°
2026-05-07 03:07 42.17115 -85.69502 8154 ft 238 kts 204°
2026-05-07 03:07 42.15337 -85.70327 8157 ft 236 kts 204°
2026-05-07 03:08 42.13573 -85.71146 8168 ft 235 kts 204°
2026-05-07 03:08 42.11789 -85.71977 8166 ft 234 kts 204°
2026-05-07 03:08 42.10123 -85.72759 8142 ft 233 kts 204°
2026-05-07 03:08 42.08487 -85.73518 8155 ft 232 kts 204°
2026-05-07 03:09 42.06891 -85.74249 8159 ft 232 kts 204°
2026-05-07 03:09 42.05268 -85.75000 8159 ft 232 kts 204°
2026-05-07 03:09 42.03690 -85.75727 8162 ft 232 kts 204°
2026-05-07 03:09 42.02116 -85.76450 8162 ft 232 kts 204°
2026-05-07 03:10 42.00539 -85.77175 8164 ft 232 kts 204°
2026-05-07 03:10 41.98971 -85.77902 8162 ft 233 kts 204°
2026-05-07 03:10 41.97371 -85.78630 8167 ft 233 kts 204°
2026-05-07 03:10 41.95810 -85.79347 8172 ft 233 kts 204°
2026-05-07 03:11 41.94188 -85.80093 8159 ft 233 kts 204°
2026-05-07 03:11 41.92552 -85.80837 8161 ft 233 kts 204°
2026-05-07 03:11 41.90916 -85.81588 8157 ft 232 kts 204°
2026-05-07 03:11 41.89261 -85.82137 8128 ft 242 kts 185°
2026-05-07 03:12 41.87495 -85.81816 8155 ft 243 kts 176°
2026-05-07 03:12 41.85774 -85.81456 8164 ft 243 kts 176°
2026-05-07 03:12 41.83980 -85.81089 8178 ft 244 kts 176°
2026-05-07 03:12 41.82208 -85.80716 8159 ft 244 kts 176°
2026-05-07 03:13 41.80442 -85.80345 8166 ft 244 kts 176°
2026-05-07 03:13 41.78659 -85.79971 8161 ft 244 kts 176°
2026-05-07 03:13 41.76910 -85.79616 8159 ft 244 kts 176°
2026-05-07 03:13 41.75174 -85.79253 8177 ft 243 kts 176°
2026-05-07 03:14 41.73380 -85.78886 8168 ft 244 kts 176°
2026-05-07 03:14 41.71640 -85.78532 8163 ft 244 kts 176°
2026-05-07 03:14 41.68121 -85.77805 8173 ft 243 kts 176°
2026-05-07 03:15 41.66394 -85.77448 8170 ft 244 kts 176°
2026-05-07 03:15 41.64631 -85.77093 8162 ft 243 kts 176°
2026-05-07 03:15 41.62725 -85.76850 8117 ft 242 kts 180°
2026-05-07 03:15 41.60825 -85.76634 7973 ft 246 kts 180°
2026-05-07 03:16 41.58895 -85.76543 7927 ft 240 kts 196°
2026-05-07 03:16 41.57162 -85.77284 7963 ft 234 kts 204°
2026-05-07 03:16 41.55448 -85.78045 7959 ft 234 kts 204°
2026-05-07 03:16 41.53749 -85.78789 7956 ft 233 kts 203°
2026-05-07 03:17 41.52123 -85.79528 7960 ft 232 kts 206°
2026-05-07 03:17 41.50525 -85.80310 7961 ft 232 kts 205°
2026-05-07 03:17 41.48883 -85.81121 7958 ft 232 kts 205°
2026-05-07 03:17 41.47476 -85.82336 7958 ft 225 kts 224°
2026-05-07 03:18 41.46143 -85.83834 7961 ft 224 kts 225°
2026-05-07 03:18 41.44915 -85.85222 7962 ft 225 kts 225°
2026-05-07 03:18 41.43645 -85.86652 7965 ft 225 kts 225°
2026-05-07 03:18 41.42342 -85.88077 7952 ft 227 kts 220°
2026-05-07 03:19 41.40791 -85.89189 7962 ft 231 kts 208°
2026-05-07 03:19 41.39135 -85.89974 7963 ft 234 kts 202°
2026-05-07 03:19 41.37388 -85.90592 7961 ft 235 kts 199°
2026-05-07 03:19 41.35561 -85.91138 7961 ft 236 kts 197°
2026-05-07 03:20 41.33734 -85.91626 7965 ft 236 kts 196°
2026-05-07 03:20 41.31874 -85.92096 7959 ft 237 kts 195°
2026-05-07 03:20 41.30032 -85.92546 7960 ft 237 kts 195°
2026-05-07 03:20 41.28206 -85.92986 7962 ft 237 kts 196°
2026-05-07 03:21 41.26404 -85.93419 7963 ft 237 kts 195°
2026-05-07 03:21 41.24676 -85.93834 7965 ft 237 kts 195°
2026-05-07 03:21 41.22942 -85.94250 7965 ft 237 kts 195°
2026-05-07 03:21 41.21261 -85.94651 7966 ft 237 kts 195°
2026-05-07 03:22 41.19571 -85.95051 7964 ft 237 kts 195°
2026-05-07 03:22 41.17861 -85.95457 7963 ft 237 kts 195°
2026-05-07 03:22 41.16153 -85.95867 7954 ft 236 kts 195°
2026-05-07 03:22 41.14472 -85.96262 7964 ft 236 kts 195°
2026-05-07 03:23 41.12719 -85.96684 7965 ft 236 kts 195°
2026-05-07 03:23 41.11020 -85.97086 7962 ft 236 kts 195°
2026-05-07 03:23 41.09277 -85.97495 7970 ft 237 kts 195°
2026-05-07 03:23 41.07470 -85.97929 7966 ft 237 kts 195°
2026-05-07 03:24 41.05752 -85.98335 7962 ft 237 kts 195°
2026-05-07 03:24 41.03957 -85.98759 7965 ft 237 kts 194°
2026-05-07 03:24 41.02216 -85.99171 7967 ft 237 kts 195°
2026-05-07 03:24 41.00514 -85.99577 7966 ft 237 kts 195°
2026-05-07 03:25 40.98740 -85.99995 7970 ft 237 kts 195°
2026-05-07 03:25 40.96908 -86.00429 7975 ft 237 kts 195°
2026-05-07 03:25 40.95068 -86.00862 7973 ft 237 kts 195°
2026-05-07 03:25 40.93308 -86.01279 7970 ft 237 kts 195°
2026-05-07 03:26 40.91531 -86.01697 7971 ft 237 kts 195°
2026-05-07 03:26 40.89805 -86.02107 7970 ft 237 kts 195°
2026-05-07 03:26 40.87988 -86.02532 7970 ft 237 kts 194°
2026-05-07 03:26 40.86122 -86.02975 7969 ft 237 kts 195°
2026-05-07 03:27 40.84316 -86.03397 7956 ft 219 kts 196°
2026-05-07 03:27 40.82789 -86.03742 7919 ft 177 kts 198°
2026-05-07 03:27 40.81502 -86.04042 7898 ft 144 kts 199°
2026-05-07 03:27 40.80548 -86.04260 7884 ft 119 kts 201°
2026-05-07 03:28 40.79773 -86.04439 7858 ft 97 kts 205°
2026-05-07 03:28 40.79247 -86.04726 7539 ft 90 kts 285°
2026-05-07 03:28 40.79303 -86.04126 6077 ft 174 kts 173°
2026-05-07 03:28 40.78162 -86.04208 5767 ft 154 kts 208°
2026-05-07 03:29 40.77123 -86.04883 5006 ft 168 kts 219°
2026-05-07 03:29 40.76617 -86.06071 4844 ft 132 kts 265°
2026-05-07 03:29 40.76380 -86.07468 3923 ft 156 kts 267°
2026-05-07 03:29 40.76252 -86.08985 3301 ft 159 kts 269°
2026-05-07 03:30 40.76195 -86.10648 3054 ft 181 kts 260°
2026-05-07 03:30 40.75407 -86.12058 4664 ft 206 kts 214°
2026-05-07 03:30 40.74140 -86.12321 7255 ft 163 kts 209°
2026-05-07 03:30 40.73241 -86.12991 8675 ft 165 kts 209°
2026-05-07 03:31 40.72042 -86.13498 9050 ft 201 kts 200°
2026-05-07 03:31 40.70655 -86.13870 9818 ft 188 kts 191°
2026-05-07 03:31 40.69031 -86.13637 8373 ft 276 kts 167°
2026-05-07 03:31 40.67012 -86.12721 8006 ft 253 kts 165°
2026-05-07 03:32 40.65249 -86.11883 7969 ft 234 kts 165°
2026-05-07 03:32 40.63565 -86.11089 7962 ft 227 kts 165°
2026-05-07 03:32 40.62026 -86.10367 7966 ft 229 kts 166°
2026-05-07 03:32 40.60383 -86.09942 7969 ft 228 kts 180°
2026-05-07 03:33 40.58717 -86.09899 7974 ft 228 kts 187°
2026-05-07 03:33 40.57052 -86.10053 7976 ft 229 kts 191°
2026-05-07 03:33 40.55407 -86.10312 7976 ft 229 kts 193°
2026-05-07 03:33 40.53749 -86.10635 7975 ft 229 kts 195°
2026-05-07 03:34 40.52104 -86.10989 7978 ft 230 kts 194°
2026-05-07 03:34 40.50456 -86.11350 7974 ft 231 kts 195°
2026-05-07 03:34 40.48827 -86.11719 7976 ft 230 kts 195°
2026-05-07 03:34 40.47186 -86.12099 7976 ft 230 kts 195°
2026-05-07 03:35 40.45520 -86.12485 7974 ft 234 kts 195°
2026-05-07 03:35 40.43717 -86.12907 7983 ft 236 kts 195°
2026-05-07 03:35 40.41855 -86.13341 7977 ft 239 kts 195°
2026-05-07 03:35 40.39993 -86.13766 7977 ft 240 kts 195°
2026-05-07 03:36 40.38156 -86.14193 7972 ft 241 kts 195°
2026-05-07 03:36 40.36256 -86.14635 7969 ft 241 kts 195°
2026-05-07 03:36 40.34369 -86.15075 7964 ft 241 kts 195°
2026-05-07 03:36 40.32468 -86.15515 7969 ft 241 kts 195°
2026-05-07 03:37 40.30608 -86.15944 7966 ft 241 kts 195°
2026-05-07 03:37 40.28803 -86.16366 7969 ft 241 kts 195°
2026-05-07 03:37 40.27060 -86.16768 7967 ft 241 kts 195°
2026-05-07 03:37 40.25333 -86.17167 7966 ft 241 kts 195°
2026-05-07 03:38 40.23452 -86.17600 7968 ft 241 kts 195°
2026-05-07 03:38 40.21579 -86.18035 7969 ft 241 kts 195°
2026-05-07 03:38 40.19672 -86.18478 7968 ft 241 kts 195°
2026-05-07 03:38 40.17738 -86.18923 7967 ft 241 kts 195°
2026-05-07 03:39 40.15856 -86.19351 7966 ft 241 kts 195°
2026-05-07 03:39 40.13974 -86.19790 7971 ft 240 kts 195°
2026-05-07 03:39 40.12128 -86.20212 7974 ft 240 kts 195°
2026-05-07 03:39 40.10358 -86.20818 7901 ft 237 kts 214°
2026-05-07 03:40 40.08579 -86.21413 7942 ft 247 kts 182°
2026-05-07 03:40 40.06852 -86.21756 7930 ft 240 kts 201°
2026-05-07 03:40 40.05056 -86.21957 7747 ft 245 kts 192°
2026-05-07 03:40 40.03307 -86.22274 7552 ft 234 kts 195°
2026-05-07 03:41 40.01668 -86.22707 7308 ft 229 kts 192°
2026-05-07 03:41 40.00034 -86.23030 7084 ft 224 kts 195°
2026-05-07 03:41 39.98513 -86.23600 6781 ft 227 kts 189°
2026-05-07 03:41 39.96921 -86.22958 6456 ft 237 kts 146°
2026-05-07 03:42 39.95950 -86.21098 5975 ft 246 kts 106°
2026-05-07 03:42 39.95893 -86.18845 5510 ft 243 kts 86°
2026-05-07 03:42 39.95601 -86.16638 5036 ft 246 kts 121°
2026-05-07 03:42 39.94408 -86.14967 4594 ft 244 kts 135°
2026-05-07 03:43 39.93200 -86.13366 4144 ft 243 kts 135°
2026-05-07 03:43 39.92015 -86.11809 3997 ft 231 kts 135°
2026-05-07 03:43 39.90872 -86.10335 3963 ft 218 kts 140°
2026-05-07 03:43 39.89560 -86.09470 3924 ft 205 kts 176°
2026-05-07 03:44 39.88168 -86.09687 3937 ft 191 kts 196°
2026-05-07 03:44 39.86845 -86.10075 3926 ft 184 kts 203°
2026-05-07 03:44 39.85628 -86.10582 3879 ft 175 kts 225°
2026-05-07 03:44 39.84627 -86.11528 3916 ft 168 kts 227°
2026-05-07 03:45 39.83707 -86.12525 3913 ft 164 kts 227°
2026-05-07 03:45 39.82820 -86.13494 3910 ft 157 kts 227°
2026-05-07 03:45 39.82002 -86.14451 3880 ft 150 kts 237°
2026-05-07 03:45 39.81260 -86.15456 3839 ft 150 kts 231°
2026-05-07 03:46 39.80454 -86.16383 3709 ft 155 kts 231°
2026-05-07 03:46 39.79667 -86.17364 3562 ft 151 kts 234°
2026-05-07 03:46 39.78915 -86.18335 3305 ft 145 kts 236°
2026-05-07 03:46 39.78217 -86.19294 3035 ft 140 kts 235°
2026-05-07 03:47 39.77529 -86.20195 2823 ft 133 kts 233°
2026-05-07 03:47 39.76868 -86.21032 2591 ft 118 kts 235°
2026-05-07 03:47 39.76295 -86.21791 2306 ft 113 kts 235°
2026-05-07 03:47 39.75777 -86.22552 2070 ft 111 kts 241°
2026-05-07 03:48 39.75285 -86.23359 1925 ft 102 kts 239°
2026-05-07 03:48 39.74812 -86.24063 1777 ft 98 kts 237°
2026-05-07 03:48 39.74355 -86.24737 1619 ft 92 kts 234°
2026-05-07 03:48 39.73926 -86.25339 1441 ft 90 kts 228°
2026-05-07 03:49 39.73459 -86.25980 1336 ft 98 kts 227°
2026-05-07 03:49 39.72986 -86.26631 1176 ft 93 kts 227°
2026-05-07 03:49 39.72550 -86.27215 1007 ft 83 kts 225°
2026-05-07 03:49 39.72139 -86.27763 854 ft 79 kts 222°
2026-05-07 03:50 39.71751 -86.28235 785 ft 64 kts 224°
2026-05-07 03:50 39.71467 -86.28605 785 ft 48 kts 225°
2026-05-07 03:50 39.71245 -86.28875 786 ft 30 kts 219°
2026-05-07 03:50 39.71158 -86.28938 788 ft 14 kts 185°
2026-05-07 03:51 39.71085 -86.28844 788 ft 12 kts 130°
2026-05-07 03:51 39.71066 -86.28841 788 ft 0 kts 208°
2026-05-07 03:51 39.71052 -86.28836 788 ft 14 kts 140°
2026-05-07 03:51 39.71057 -86.28672 788 ft 20 kts 39°
2026-05-07 03:52 39.71154 -86.28549 788 ft 11 kts 55°
2026-05-07 03:52 39.71157 -86.28545 788 ft 0 kts 43°
2026-05-07 03:52 39.71172 -86.28527 788 ft 6 kts 39°
2026-05-07 03:52 39.71218 -86.28462 786 ft 13 kts 48°
2026-05-07 03:53 39.71243 -86.28352 785 ft 7 kts 105°
2026-05-07 03:53 39.71249 -86.28334 785 ft 0 kts 300°